Location: Huntsville
(41.2590°N, 111.7678°W)
Time: 08:09:18
(UTC+00:00)

Vanguard 3 - Pass Details

Date: 20 June 2021
Orbit: 508 x 3261 km, 33.4° (Epoch: 29 July)

Event Time Altitude Azimuth Distance (km) Brightness Sun altitude
Rises 18:31:26 0° 262° (W) 3,015 10.0 68.5°
Reaches altitude 10° 18:33:43 10° 249° (WSW) 2,311 9.6 68.8°
Maximum altitude 18:38:14 27° 191° (SSW) 1,841 9.7 69.3°
Drops below altitude 10° 18:45:03 10° 138° (SE) 3,589 10.9 70.0°
Sets 18:49:36 0° 129° (SE) 5,097 11.5 70.4°
